Regional Weather Roundup
Issued by NWS

Home | Current Version | Previous Version | Text Only | Print | Product List | Glossary Off
Versions: 1 2 3 4 5 6 7 8 9 10 11 12 13 14 15 16 17 18 19 20 21 22 23 24 25 26 27 28 29 30 31 32 33 34 35 36 37 38 39 40 41 42 43 44 45 46 47 48 49 50

000
ASUS43 KTOP 220908
RWRKS

WEATHER ROUNDUP FOR KANSAS
NATIONAL WEATHER SERVICE GOODLAND KS
400 AM CDT MON MAY 22 2017

NOTE:  "FAIR" INDICATES FEW OR NO CLOUDS BELOW 12,000 FEET WITH NO
SIGNIFICANT WEATHER AND/OR OBSTRUCTIONS TO VISIBILITY.

KSZ001>006-013>018-027>032-041>047-221000-
NORTHWEST KANSAS

CITY           SKY/WX    TMP DP  RH WIND       PRES   REMARKS
GOODLAND       CLOUDY    50  48  93 NW8       30.14F
HAYS           PTCLDY    54  49  83 NW12      30.11S
HILL CITY      CLOUDY    56  54  93 W7        30.11F
RUSSELL        MOCLDY    52  48  86 NW7       30.09S
$$

KSZ061>065-074>080-084>089-221000-
SOUTHWEST KANSAS

CITY           SKY/WX    TMP DP  RH WIND       PRES   REMARKS
DODGE CITY     CLOUDY    53  50  89 S8        30.11S
ELKHART          N/A     53  40  61 S17         N/A
GARDEN CITY    CLOUDY    49  47  93 W8        30.11S
LIBERAL        CLOUDY    55  52  89 SW8       30.12F
PRATT          CLOUDY    53  49  85 S9        30.11S
$$

KSZ066>073-081>083-090>101-221000-
SOUTHEAST KANSAS

CITY           SKY/WX    TMP DP  RH WIND       PRES   REMARKS
CHANUTE        CLOUDY    58  54  86 S7        30.11F
COFFEYVILLE    PTCLDY    55  55 100 CALM      30.12F
HUTCHINSON     MOCLDY    57  52  83 S7        30.09F
MEDICINE LODGE   N/A     58  51  78 S7        30.10S
NEWTON         CLOUDY    58  51  78 S7        30.10F
PARSONS        CLOUDY    55  53  93 CALM      30.13F
WICHITA INTL   MOCLDY    55  52  89 S5        30.10F
WICHITA JABRA  PTCLDY    58  51  78 S8        30.10F
WICHITA MCCONL PTCLDY    57  51  78 SW8       30.10F
WINFIELD       PTCLDY    55  51  86 S6        30.12F
$$

KSZ007>012-019>026-033>040-048>060-102>105-221000-
NORTHEAST KANSAS

CITY           SKY/WX    TMP DP  RH WIND       PRES   REMARKS
CONCORDIA      CLOUDY    56  53  90 W8        30.08R
EMPORIA        PTCLDY    53  51  93 S5        30.09F
LAWRENCE       CLEAR     51  50  96 E5        30.09F
MANHATTAN      CLOUDY    52  51  97 CALM      30.07S
MARYSVILLE     CLOUDY    54  50  87 S6        30.05F
OLATHE IND     CLEAR     52  48  86 S7        30.10F
OLATHE EXE     CLEAR     51  47  86 S3        30.10F
SALINA         CLOUDY    53  50  89 S8        30.08F
TOPEKA BILLARD CLEAR     52  51  97 SE5       30.07F
TOPEKA FORBES  CLEAR     51  48  89 SE5       30.07F
$$




USA.gov is the U.S. government's official web portal to all federal, state and local government web resources and services.